Date,TemperatureHighF,TemperatureAvgF,TemperatureLowF,DewpointHighF,DewpointAvgF,DewpointLowF,HumidityHigh,HumidityAvg,HumidityLow,PressureMaxIn,PressureMinIn,WindSpeedMaxMPH,WindSpeedAvgMPH,GustSpeedMaxMPH,PrecipitationSumIn
2013-1-1,34.2,28.2,15.5,27.8,16.4,3.9,83,62,46,29.91,29.67,8,2,17,0.00
2013-1-2,26.1,15.9,5.9,17.0,6.7,-5.6,85,67,56,30.11,29.88,5,1,10,0.00
2013-1-3,22.7,9.0,-2.6,6.9,-1.5,-7.5,84,64,33,30.14,29.98,3,0,12,0.00
2013-1-4,36.8,21.6,2.6,25.4,15.4,-0.4,94,78,58,29.98,29.78,5,0,17,0.00
2013-1-5,38.7,30.3,16.9,25.2,20.5,14.2,89,68,45,30.25,29.80,6,1,14,0.00
2013-1-6,40.3,27.9,17.0,29.1,23.6,14.3,92,84,63,30.21,29.92,3,0,7,0.01
2013-1-7,33.8,24.6,12.6,26.5,18.5,10.2,96,79,49,30.39,29.94,6,1,10,0.00
2013-1-8,42.9,24.3,9.4,28.2,18.9,7.1,95,82,52,30.36,30.24,5,0,10,0.02
2013-1-9,41.3,28.6,15.2,31.9,24.3,13.3,94,84,63,30.40,29.97,3,0,9,0.55
2013-1-10,43.6,38.6,26.9,30.5,26.1,23.3,87,61,48,30.53,29.99,9,2,20,0.00
2013-1-11,37.9,30.1,20.5,33.8,26.3,18.8,94,86,68,30.51,30.22,1,0,6,0.11
2013-1-12,39.8,35.9,33.2,38.8,34.8,32.2,97,96,94,30.21,30.11,0,0,0,0.02
2013-1-13,43.6,38.4,33.8,42.8,37.5,32.9,97,97,96,30.13,29.96,0,0,4,0.00
2013-1-14,57.2,43.3,37.2,51.3,37.2,27.3,98,81,50,30.25,29.83,5,0,12,0.00
2013-1-15,39.9,33.2,28.0,29.7,26.7,24.4,90,78,56,30.31,30.21,3,0,9,0.00
2013-1-16,34.6,31.4,28.0,32.2,29.2,25.4,95,92,88,30.24,29.80,1,0,5,0.42
2013-1-17,40.3,29.1,21.1,35.4,22.9,10.1,97,79,49,30.10,29.80,5,0,12,0.01
2013-1-18,26.5,17.5,10.7,10.8,2.5,-3.4,84,53,34,30.42,30.05,6,1,18,0.00
2013-1-19,43.7,31.5,16.3,27.9,21.2,9.2,90,67,47,30.35,29.85,6,0,15,0.00
2013-1-20,49.6,37.4,27.4,31.9,24.4,10.7,91,61,31,29.90,29.50,6,2,21,0.00
2013-1-21,27.4,24.0,16.4,20.8,11.8,3.0,87,61,43,30.06,29.78,6,0,15,0.00
2013-1-22,23.5,18.2,8.4,19.7,8.9,-2.3,87,68,39,30.06,29.75,7,1,12,0.00
2013-1-23,13.1,6.9,-0.9,0.3,-8.0,-12.7,77,51,31,30.12,30.04,5,1,15,0.00
2013-1-24,17.0,6.7,-5.0,-5.2,-8.9,-11.2,76,50,31,30.21,30.05,8,2,25,0.00
2013-1-25,21.1,13.5,4.5,9.9,-4.1,-8.5,76,46,30,30.30,30.06,5,1,14,0.00
2013-1-26,21.6,15.0,8.9,10.9,2.5,-6.2,88,60,35,30.21,30.00,7,1,14,0.00
2013-1-27,28.1,18.1,10.7,5.7,2.1,-1.4,70,51,29,30.46,30.20,6,1,14,0.00
2013-1-28,28.8,22.1,15.0,22.8,11.4,0.1,91,65,38,30.44,30.02,1,0,6,0.15
2013-1-29,34.4,29.6,24.1,30.7,26.2,21.1,95,87,79,30.18,30.03,2,0,4,0.04
2013-1-30,54.1,40.9,32.1,53.3,40.0,30.8,97,96,95,30.14,29.42,3,0,16,0.08
2013-1-31,58.2,44.4,29.2,56.9,35.3,15.5,97,72,45,29.54,28.90,9,3,24,0.25
2013-2-1,31.4,26.6,20.6,16.6,10.6,5.7,63,51,40,30.05,29.55,6,2,18,0.00
2013-2-2,28.1,22.5,14.9,14.4,8.3,4.1,64,54,42,30.22,30.03,3,0,10,0.00
2013-2-3,27.6,24.1,17.0,22.6,19.4,13.8,93,83,61,30.04,29.71,3,0,7,0.01
2013-2-4,30.2,22.1,13.3,19.5,10.4,4.1,92,63,39,29.90,29.70,8,1,27,0.00
2013-2-5,28.6,21.8,15.8,17.2,10.4,5.3,79,61,47,30.01,29.90,2,0,6,0.00
2013-2-6,36.2,27.2,21.2,25.1,18.7,5.6,92,72,45,30.29,29.91,5,0,13,0.01
2013-2-7,26.6,20.1,10.3,5.9,1.8,-2.3,78,46,33,30.53,30.29,5,0,12,0.00
2013-2-8,22.8,19.9,17.2,17.2,14.3,0.9,91,80,38,30.49,29.70,9,2,22,0.48
2013-2-9,20.1,17.5,12.8,18.1,14.5,7.8,92,88,80,30.19,29.64,9,4,26,0.70
2013-2-10,33.2,17.7,5.9,23.5,11.3,1.6,88,77,55,30.39,30.19,5,0,10,0.00
2013-2-11,32.3,23.7,7.3,31.1,21.9,4.5,96,93,87,30.34,29.61,1,0,5,0.26
2013-2-12,43.3,35.6,28.8,33.8,30.1,27.3,96,82,59,29.84,29.57,8,1,16,0.00
2013-2-13,41.2,32.3,23.0,28.4,24.7,20.5,92,75,51,29.84,29.71,5,0,9,0.00
2013-2-14,41.7,30.7,20.9,27.4,23.4,18.7,92,76,48,29.97,29.69,5,0,9,0.00
2013-2-15,51.0,32.0,17.5,33.6,25.5,15.6,95,79,48,29.97,29.87,5,0,16,0.00
2013-2-16,41.0,33.1,25.0,31.6,25.5,16.4,95,75,53,29.95,29.73,6,0,15,0.07
2013-2-17,28.1,20.8,15.7,17.5,9.2,2.2,88,62,45,29.72,29.38,9,4,26,0.07
2013-2-18,30.6,19.7,12.9,9.1,2.0,-1.8,74,48,27,30.13,29.66,8,3,20,0.00
2013-2-19,42.6,31.4,12.9,36.9,21.9,6.0,96,70,42,30.15,29.55,3,0,8,0.25
2013-2-20,35.0,31.2,25.4,34.0,21.6,14.0,96,69,48,29.74,29.50,7,2,18,0.01
2013-2-21,31.1,25.4,22.5,16.2,14.0,10.1,74,62,50,30.19,29.74,8,2,17,0.00
2013-2-22,39.1,29.4,17.0,25.8,20.4,14.6,91,71,44,30.39,30.19,3,0,9,0.00
2013-2-23,36.8,32.8,28.3,31.5,28.8,24.8,95,85,74,30.32,29.93,3,0,8,0.00
2013-2-24,34.8,33.2,30.5,33.0,31.6,29.0,96,94,91,29.93,29.71,5,0,12,0.69
2013-2-25,38.2,32.7,29.4,34.1,30.9,28.0,96,93,82,30.23,29.89,0,0,4,0.03
2013-2-26,41.8,33.6,28.4,35.0,30.4,27.1,97,89,69,30.33,30.17,3,0,9,0.00
2013-2-27,39.7,35.6,31.2,38.1,33.9,29.2,96,94,87,30.17,29.57,9,2,24,0.97
2013-2-28,45.3,36.8,32.3,37.0,33.4,31.3,96,88,70,29.62,29.52,3,0,7,0.00
2013-3-1,39.7,35.5,28.9,33.3,30.1,27.6,96,81,67,29.67,29.52,5,0,12,0.00
2013-3-2,41.5,35.4,28.6,31.0,27.9,25.6,90,74,61,29.66,29.60,5,0,12,0.00
2013-3-3,39.5,34.0,29.8,32.4,28.1,25.5,89,79,67,29.64,29.55,5,1,9,0.01
2013-3-4,37.8,32.4,29.2,28.6,24.9,22.5,86,74,59,29.74,29.57,7,2,18,0.00
2013-3-5,43.8,34.7,28.6,33.1,27.1,22.2,95,74,55,30.07,29.74,5,1,13,0.01
2013-3-6,36.4,34.3,31.0,34.2,32.3,29.5,96,92,82,30.14,30.05,7,2,18,0.19
2013-3-7,34.7,31.9,30.2,31.0,28.9,26.3,94,89,79,30.12,30.01,9,3,17,0.24
2013-3-8,41.4,32.9,26.7,32.2,28.9,24.9,94,86,57,30.16,29.97,6,1,10,0.63
2013-3-9,53.7,32.7,19.0,30.5,23.7,17.5,96,74,29,30.35,30.16,5,0,8,0.00
2013-3-10,44.9,32.0,18.0,32.3,26.6,16.3,96,82,60,30.41,30.29,3,0,10,0.00
2013-3-11,50.3,38.7,28.7,38.2,32.6,27.2,96,80,53,30.31,30.12,5,0,8,0.00
2013-3-12,51.7,44.6,34.5,50.0,43.3,32.8,97,95,88,30.13,29.70,3,0,12,0.29
2013-3-13,49.8,41.4,29.0,46.2,31.8,22.5,97,71,40,29.77,29.68,5,1,12,0.00
2013-3-14,34.4,29.1,21.3,24.6,17.8,8.5,93,64,47,29.82,29.68,7,2,22,0.00
2013-3-15,39.6,27.8,17.9,29.0,14.4,6.1,90,59,29,29.85,29.61,6,1,14,0.00
2013-3-16,37.0,30.9,24.6,27.0,16.5,10.9,82,56,35,29.88,29.66,5,1,12,0.00
2013-3-17,36.2,26.9,17.6,17.6,11.7,3.2,91,56,29,30.32,29.88,7,1,15,0.00
2013-3-18,37.2,26.4,11.9,26.1,8.7,1.8,84,50,23,30.45,30.25,3,0,7,0.00
2013-3-19,33.9,31.3,26.8,32.1,29.4,24.2,94,93,87,30.23,29.65,7,1,21,0.93
2013-3-20,37.0,29.8,23.4,27.5,24.1,21.4,92,80,58,29.79,29.68,6,1,14,0.00
2013-3-21,39.0,28.0,15.6,26.2,19.5,13.5,94,74,38,29.79,29.59,5,0,9,0.00
2013-3-22,39.9,31.5,23.5,24.9,21.2,16.9,94,67,42,29.71,29.60,5,1,13,0.00
2013-3-23,41.7,33.3,22.5,23.8,20.9,18.8,88,62,41,29.76,29.61,8,2,20,0.00
2013-3-24,45.2,37.3,30.5,29.9,25.1,21.9,85,62,44,29.80,29.72,7,1,14,0.00
2013-3-25,43.8,34.8,25.6,32.5,28.4,23.4,92,78,62,29.77,29.53,7,1,16,0.00
2013-3-26,49.5,39.3,30.6,29.2,25.5,20.5,84,60,33,29.76,29.55,6,1,10,0.00
2013-3-27,53.0,39.1,23.8,33.6,26.4,21.6,92,64,37,29.87,29.73,8,1,14,0.00
2013-3-28,48.1,40.8,33.3,35.8,33.2,30.4,94,76,51,30.00,29.87,5,0,12,0.01
2013-3-29,55.5,41.5,29.5,36.3,32.0,27.6,94,72,43,30.04,29.96,6,0,12,0.00
2013-3-30,55.1,41.7,29.7,32.8,25.6,16.6,94,60,23,30.09,29.99,6,1,12,0.00
2013-3-31,58.9,41.8,23.1,40.0,26.3,20.7,92,61,25,30.11,29.75,6,1,15,0.03
2013-4-1,60.0,44.6,33.1,44.0,35.4,13.8,96,73,39,29.76,29.47,7,1,20,0.34
2013-4-2,39.0,32.8,27.0,18.3,14.2,10.4,63,47,33,29.90,29.76,8,2,21,0.00
2013-4-3,44.5,35.3,28.0,16.8,12.6,7.1,57,41,22,30.13,29.89,8,2,20,0.00
2013-4-4,54.2,40.6,26.7,24.3,17.3,10.7,69,41,20,30.27,30.00,6,1,10,0.00
2013-4-5,60.2,45.3,35.5,29.4,25.7,17.9,77,50,20,30.00,29.63,5,1,13,0.00
2013-4-6,42.9,35.4,26.5,24.7,11.9,4.4,66,40,20,30.32,29.87,8,2,17,0.00
2013-4-7,56.6,39.9,22.7,38.3,25.5,16.2,87,60,27,30.33,29.96,7,1,21,0.00
2013-4-8,61.8,48.5,35.4,42.0,36.4,31.8,96,67,33,30.08,29.93,6,1,14,0.00
2013-4-9,68.5,53.4,43.7,50.7,43.7,38.6,95,72,45,30.07,29.84,6,1,15,0.06
2013-4-10,57.7,49.9,44.4,51.2,46.4,41.8,96,88,74,30.00,29.84,1,0,5,0.48
2013-4-11,50.5,45.4,38.8,47.4,38.8,26.8,96,79,45,30.14,29.83,3,0,8,0.09
2013-4-12,40.4,36.2,34.2,36.1,32.7,27.5,95,88,60,30.18,29.82,6,1,16,0.42
2013-4-13,51.0,41.8,34.2,41.5,37.0,32.9,95,84,60,29.92,29.75,3,0,10,0.12
2013-4-14,54.5,44.8,35.0,39.7,34.1,28.4,95,69,39,30.20,29.90,7,1,15,0.00
2013-4-15,57.5,43.1,28.4,37.4,32.6,26.9,96,70,37,30.37,30.20,5,0,12,0.00
2013-4-16,68.4,50.3,33.1,51.7,41.8,31.6,96,75,43,30.39,30.03,6,1,20,0.00
2013-4-17,64.0,55.9,40.8,52.6,37.1,28.4,84,52,28,30.32,30.02,7,2,16,0.00
2013-4-18,51.6,44.1,36.0,43.0,36.8,31.4,84,76,68,30.37,30.14,3,0,9,0.00
2013-4-19,74.5,62.9,51.0,62.2,56.0,43.0,95,79,59,30.14,29.59,7,2,24,0.00
2013-4-20,67.3,52.1,42.0,63.0,40.1,22.9,95,67,38,30.20,29.57,7,2,17,0.47
2013-4-21,52.0,41.4,29.5,29.5,22.6,14.6,84,50,24,30.68,30.21,6,1,17,0.00
2013-4-22,50.7,39.8,28.1,33.3,29.0,22.3,94,69,35,30.76,30.60,7,2,20,0.00
2013-4-23,40.9,38.1,32.0,39.4,35.7,29.7,95,91,84,30.60,30.14,3,1,19,0.02
2013-4-24,75.2,56.4,40.7,52.7,44.5,38.6,95,69,28,30.14,29.75,5,1,12,0.00
2013-4-25,63.1,53.7,38.3,51.1,37.0,25.7,93,57,26,30.26,29.79,6,1,13,0.04
2013-4-26,60.2,47.0,31.1,36.8,32.6,29.0,93,61,37,30.42,30.26,6,1,14,0.00
2013-4-27,65.9,45.1,32.1,40.7,34.8,30.3,96,71,32,30.42,30.26,2,0,8,0.00
2013-4-28,70.1,52.1,33.9,41.9,36.8,32.1,95,61,28,30.32,30.19,6,1,14,0.00
2013-4-29,69.5,55.3,39.9,46.5,39.0,32.5,87,57,33,30.25,30.15,5,0,10,0.00
2013-4-30,70.9,56.5,40.9,40.6,32.5,24.1,87,45,20,30.36,30.23,5,0,10,0.00
2013-5-1,72.5,53.5,33.3,39.9,34.2,30.8,93,54,25,30.45,30.35,5,0,12,0.00
2013-5-2,78.7,53.0,37.1,45.8,38.6,33.8,93,63,23,30.49,30.33,9,1,18,0.00
2013-5-3,62.8,49.4,35.7,45.5,40.2,33.9,96,73,49,30.52,30.37,6,1,13,0.00
2013-5-4,63.7,49.0,35.7,45.8,37.4,29.7,96,69,30,30.37,30.28,7,1,13,0.00
2013-5-5,66.4,53.5,34.6,42.6,38.4,32.2,92,59,39,30.33,30.23,5,1,9,0.00
2013-5-6,72.8,51.6,31.8,48.7,39.9,30.2,96,70,24,30.27,30.12,3,0,8,0.00
2013-5-7,79.9,60.4,38.9,57.9,48.2,37.3,97,70,27,30.17,30.06,3,0,8,0.00
2013-5-8,74.2,61.9,49.0,61.6,56.3,47.3,96,83,58,30.19,30.04,6,1,16,0.00
2013-5-9,65.3,58.8,54.4,60.9,57.1,53.3,96,94,81,30.04,29.87,1,0,5,0.47
2013-5-10,78.9,64.2,53.9,61.2,56.6,52.9,97,79,45,29.94,29.86,3,0,7,0.00
2013-5-11,68.6,62.1,57.6,63.3,59.4,55.4,96,91,81,29.88,29.67,3,0,10,0.10
2013-5-12,69.8,59.3,43.9,59.6,51.0,31.3,97,76,41,29.78,29.54,3,0,12,0.04
2013-5-13,56.7,47.6,39.3,37.3,32.1,28.2,84,57,35,30.01,29.78,5,1,14,0.00
2013-5-14,59.5,46.5,32.9,37.6,32.6,27.8,95,62,33,30.04,29.96,7,1,12,0.00
2013-5-15,65.4,48.1,30.2,52.0,38.8,28.7,96,75,31,30.05,29.66,5,0,12,0.06
2013-5-16,80.3,62.5,40.4,53.3,41.9,34.0,97,56,23,29.81,29.60,6,1,15,0.00
2013-5-17,68.3,56.7,44.5,44.9,41.6,36.5,88,60,34,30.20,29.81,7,1,14,0.00
2013-5-18,72.4,55.9,37.9,49.8,42.8,36.3,97,67,29,30.30,30.20,5,0,12,0.00
2013-5-19,71.1,56.0,48.2,55.0,50.8,46.0,96,84,52,30.34,30.20,3,0,10,0.25
2013-5-20,80.3,65.5,54.5,66.6,60.1,53.4,97,84,58,30.20,29.90,3,0,7,0.03
2013-5-21,70.6,57.9,49.7,65.5,55.7,48.1,97,92,78,30.03,29.88,7,1,14,0.13
2013-5-22,60.3,54.0,49.7,57.8,52.6,48.6,97,95,89,30.08,29.86,5,0,10,1.72
2013-5-23,73.3,60.9,52.1,71.7,59.8,51.3,98,96,89,29.92,29.77,3,0,10,0.32
2013-5-24,70.0,61.4,48.0,67.3,59.3,46.9,98,93,78,29.83,29.62,3,0,8,0.96
2013-5-25,50.5,46.5,39.2,49.4,45.2,37.7,97,96,90,29.82,29.70,3,1,10,0.28
2013-5-26,55.0,46.6,38.6,44.2,40.3,37.2,96,80,59,30.08,29.69,5,1,18,0.09
2013-5-27,70.5,53.8,35.5,50.4,40.5,34.4,97,67,30,30.17,30.06,3,0,10,0.00
2013-5-28,72.7,56.5,38.7,51.2,44.2,37.4,97,69,33,30.23,30.14,3,0,9,0.00
2013-5-29,65.9,59.5,50.5,63.6,58.1,48.5,97,95,90,30.17,29.97,2,0,4,0.47
2013-5-30,87.3,71.3,57.5,71.2,64.4,56.7,98,81,47,30.06,29.98,3,0,9,0.00
2013-5-31,92.8,75.2,58.8,72.0,65.9,57.7,97,76,40,30.07,29.90,3,0,8,0.00
2013-6-1,92.9,77.6,62.9,71.4,66.7,61.4,97,73,37,29.94,29.81,3,0,10,0.00
2013-6-2,90.4,76.5,66.8,73.2,68.2,64.6,96,78,44,29.84,29.67,5,1,12,0.08
2013-6-3,77.7,68.0,54.9,69.8,63.0,49.0,97,85,57,29.82,29.72,2,0,7,0.20
2013-6-4,70.3,58.7,47.6,52.5,47.1,42.4,89,68,42,30.09,29.81,3,1,10,0.00
2013-6-5,74.8,59.5,44.8,55.4,48.5,43.3,97,71,37,30.18,30.07,3,0,6,0.00
2013-6-6,73.4,61.8,51.5,58.7,53.7,49.7,96,76,52,30.18,30.09,3,0,10,0.00
2013-6-7,56.9,54.0,51.3,54.6,52.7,50.2,96,95,91,30.10,29.84,3,0,12,1.23
2013-6-8,76.0,61.8,51.9,66.9,57.7,50.8,97,87,64,29.98,29.64,3,0,9,0.81
2013-6-9,79.1,65.4,52.8,61.8,57.1,51.7,97,77,44,30.15,29.98,3,0,9,0.00
2013-6-10,68.7,60.3,50.7,60.9,56.4,49.3,97,88,71,30.19,30.01,2,0,8,0.31
2013-6-11,59.7,56.3,54.1,57.0,55.0,53.0,96,95,89,30.01,29.57,5,0,14,0.73
2013-6-12,66.7,60.9,55.2,58.3,55.6,53.3,97,84,66,29.80,29.55,5,1,14,0.03
2013-6-13,66.6,56.5,47.6,60.5,53.8,46.2,97,91,71,29.80,29.69,1,0,6,0.28
2013-6-14,75.5,60.2,52.9,61.5,55.1,51.4,97,85,44,29.76,29.65,2,0,7,0.44
2013-6-15,78.2,63.2,49.4,58.5,50.7,45.3,97,69,33,29.91,29.76,3,0,10,0.00
2013-6-16,73.3,62.3,48.9,63.1,56.5,47.5,97,82,55,29.92,29.68,3,0,7,0.00
2013-6-17,84.5,65.9,53.8,66.1,59.6,52.4,97,82,48,29.89,29.75,3,0,6,0.06
2013-6-18,69.5,60.2,53.7,63.9,58.1,52.6,97,93,75,29.94,29.87,2,0,5,0.28
2013-6-19,76.2,62.7,51.8,57.6,53.1,46.4,97,74,38,30.14,29.91,2,0,7,0.00
2013-6-20,79.1,62.2,45.0,60.0,51.8,43.7,97,73,38,30.25,30.14,2,0,7,0.00
2013-6-21,85.0,67.0,53.4,64.1,57.5,50.8,97,76,33,30.23,30.17,2,0,6,0.00
2013-6-22,82.3,69.4,56.0,71.6,63.1,54.6,97,82,59,30.20,30.07,2,0,7,0.00
2013-6-23,88.7,74.5,62.6,77.4,68.4,60.8,95,82,62,30.13,29.94,3,0,10,0.01
2013-6-24,93.4,78.3,68.6,75.5,70.1,66.7,96,78,45,29.98,29.84,3,0,8,0.05
2013-6-25,88.5,75.9,66.2,76.0,70.2,65.0,97,84,60,29.90,29.70,2,0,7,0.22
2013-6-26,78.7,70.4,65.0,73.7,68.5,63.8,97,94,75,29.84,29.70,1,0,5,0.57
2013-6-27,68.8,64.0,60.4,66.7,62.6,59.2,97,95,91,29.85,29.75,2,0,9,0.12
2013-6-28,74.6,65.2,56.4,73.7,64.3,55.4,98,97,95,29.76,29.46,5,0,12,0.53
2013-6-29,82.6,73.3,67.6,74.3,69.8,66.1,98,90,69,29.69,29.49,2,0,14,0.00
2013-6-30,84.2,74.0,63.6,75.3,69.6,62.4,97,87,68,29.91,29.69,3,0,12,0.00
2013-7-1,79.1,72.4,68.4,74.5,70.6,67.0,97,94,83,30.05,29.90,1,0,6,1.83
2013-7-2,80.2,69.2,60.3,76.7,67.8,59.2,97,95,79,30.20,30.04,5,0,12,0.02
2013-7-3,86.3,77.3,60.3,77.8,72.6,59.1,97,86,71,30.21,30.09,2,0,8,0.00
2013-7-4,91.3,79.4,69.5,79.3,73.5,68.3,97,83,60,30.17,30.05,2,0,9,0.00
2013-7-5,92.7,81.3,71.7,79.6,74.9,70.5,96,82,60,30.13,29.99,2,0,7,0.00
2013-7-6,87.9,78.3,69.5,76.1,72.2,65.8,96,82,60,30.05,29.95,3,0,9,0.00
2013-7-7,90.0,76.0,64.6,79.3,70.1,63.1,96,83,58,30.00,29.88,2,0,5,0.00
2013-7-8,82.5,73.4,64.8,75.7,70.5,63.6,96,91,76,30.06,29.89,5,0,12,0.94
2013-7-9,71.3,67.4,63.8,68.2,65.3,62.6,96,93,88,30.09,30.03,2,0,7,0.00
2013-7-10,81.1,70.5,64.9,76.4,68.9,63.4,97,95,83,30.06,29.77,2,0,9,1.01
2013-7-11,81.6,73.2,69.2,76.4,71.7,68.0,98,95,74,29.92,29.74,3,0,7,0.09
2013-7-12,78.3,69.4,63.2,67.5,62.3,57.4,97,80,52,30.19,29.92,5,1,12,0.00
2013-7-13,78.9,70.0,62.1,71.8,65.4,60.4,95,86,70,30.29,30.19,3,0,8,0.00
2013-7-14,88.3,76.5,67.2,76.7,71.4,65.7,97,85,60,30.28,30.18,2,0,6,0.00
2013-7-15,89.7,76.9,66.4,76.3,70.9,65.2,97,83,57,30.18,30.07,3,0,5,0.00
2013-7-16,92.3,78.1,65.0,75.4,69.8,63.7,97,78,46,30.15,30.08,2,0,8,0.00
2013-7-17,93.1,78.8,67.4,79.6,72.1,65.9,96,81,50,30.16,29.94,2,0,5,0.00
2013-7-18,91.6,79.5,71.6,77.5,72.4,69.3,96,81,54,29.99,29.92,3,0,9,0.00
2013-7-19,94.5,80.6,69.7,79.0,74.1,68.4,96,82,55,29.92,29.67,2,0,9,0.00
2013-7-20,88.5,78.9,69.5,77.2,71.7,64.8,92,79,61,29.78,29.62,3,0,9,0.00
2013-7-21,79.6,71.2,62.5,70.2,65.3,61.0,96,83,58,29.97,29.78,3,0,9,0.00
2013-7-22,81.4,71.0,65.5,71.9,67.1,63.8,96,88,69,30.01,29.88,3,0,10,0.00
2013-7-23,77.4,69.9,67.0,74.4,68.4,65.4,96,95,89,29.88,29.52,2,0,7,0.98
2013-7-24,81.3,72.7,61.9,72.7,66.6,51.5,97,82,61,29.96,29.56,2,0,7,0.00
2013-7-25,64.3,60.5,56.6,58.9,54.5,49.5,96,81,68,30.10,29.96,3,0,8,0.12
2013-7-26,69.5,64.4,59.5,68.0,62.7,58.4,96,94,85,30.07,29.92,2,0,8,0.26
2013-7-27,82.7,68.9,57.3,69.6,63.2,56.2,97,84,55,30.03,29.96,2,0,5,0.00
2013-7-28,78.9,69.3,61.6,71.5,65.7,60.2,96,89,75,30.01,29.95,5,0,10,0.09
2013-7-29,82.9,70.7,65.2,73.8,67.8,63.7,96,91,67,30.02,29.92,3,0,13,0.16
2013-7-30,80.2,68.2,57.6,65.9,61.2,56.5,97,80,48,30.08,30.01,2,0,7,0.00
2013-7-31,79.9,67.5,56.2,67.8,60.6,54.8,97,80,50,30.12,30.02,2,0,7,0.00
2013-8-1,78.4,66.9,56.1,69.1,62.8,54.6,97,87,64,30.03,29.86,2,0,9,0.04
2013-8-2,79.8,69.1,63.5,68.7,64.0,60.4,96,85,57,29.86,29.76,2,0,8,0.56
2013-8-3,77.3,67.4,59.0,67.3,61.4,56.6,96,83,57,29.84,29.74,2,0,7,0.01
2013-8-4,77.8,63.2,53.6,65.4,58.2,52.2,96,85,53,29.88,29.75,2,0,10,0.26
2013-8-5,74.0,60.7,50.9,55.4,49.8,42.0,97,72,33,30.04,29.87,5,1,12,0.00
2013-8-6,77.7,60.6,45.9,59.8,52.0,44.5,96,76,40,30.14,30.04,2,0,6,0.00
2013-8-7,79.3,64.0,50.4,62.9,56.6,49.0,97,79,46,30.17,30.08,3,0,9,0.00
2013-8-8,79.5,70.1,62.4,73.4,66.7,58.7,96,89,78,30.10,29.98,2,0,7,0.05
2013-8-9,73.4,71.0,68.2,72.4,69.7,67.0,97,95,94,30.00,29.71,2,0,10,1.71
2013-8-10,81.0,69.5,57.0,66.9,61.9,52.0,97,80,42,30.00,29.76,3,0,10,0.00
2013-8-11,77.6,62.9,50.1,63.3,55.6,48.7,97,80,48,30.07,29.97,2,0,7,0.00
2013-8-12,79.1,65.3,53.8,65.7,58.4,52.4,97,80,50,30.01,29.89,2,0,6,0.00
2013-8-13,72.5,66.0,60.6,68.5,63.9,58.9,96,93,82,29.91,29.66,2,0,6,0.04
2013-8-14,73.0,63.8,55.6,61.5,56.5,51.5,96,79,53,29.94,29.64,5,1,12,0.00
2013-8-15,75.3,59.7,46.8,60.8,52.6,45.5,97,80,50,30.09,29.94,3,0,12,0.00
2013-8-16,76.6,61.9,48.3,62.8,55.0,46.9,97,80,50,30.18,30.09,2,0,7,0.00
2013-8-17,79.1,63.7,50.7,66.4,57.8,49.3,97,83,48,30.26,30.17,2,0,5,0.00
2013-8-18,77.4,65.3,53.9,68.2,61.0,52.5,97,87,61,30.26,30.06,2,0,4,0.00
2013-8-19,78.6,66.5,54.6,68.5,61.4,53.2,97,85,59,30.06,29.92,3,0,7,0.00
2013-8-20,83.5,69.0,57.1,70.0,62.9,55.7,97,82,51,30.07,29.96,2,0,5,0.00
2013-8-21,85.9,70.0,57.1,71.5,64.0,55.7,97,83,55,30.13,30.00,2,0,5,0.00
2013-8-22,85.5,72.1,58.8,74.2,66.8,57.4,97,85,61,30.01,29.79,2,0,8,0.00
2013-8-23,79.1,70.1,58.0,67.7,59.7,51.4,94,71,43,30.12,29.80,3,0,9,0.00
2013-8-24,75.1,61.1,48.1,60.6,51.7,46.5,96,74,39,30.32,30.12,2,0,8,0.00
2013-8-25,80.5,62.6,46.5,61.9,54.3,44.9,97,77,40,30.35,30.16,2,0,7,0.00
2013-8-26,76.7,68.3,61.1,70.8,64.4,57.8,95,88,73,30.16,29.84,3,0,6,0.03
2013-8-27,83.6,72.2,64.5,70.9,66.9,62.7,95,84,57,29.89,29.81,3,0,8,0.00
2013-8-28,83.3,70.4,59.3,71.3,64.9,57.9,97,84,62,29.97,29.83,3,0,8,0.00
2013-8-29,66.6,64.0,60.2,64.3,61.7,58.5,95,92,88,30.07,29.94,3,0,10,0.05
2013-8-30,81.4,67.5,56.6,71.2,63.2,55.2,96,87,65,30.01,29.79,2,0,4,0.00
2013-8-31,78.7,71.3,64.7,75.8,69.5,63.2,97,94,88,29.83,29.75,1,0,5,0.13
2013-9-1,81.7,73.9,68.7,75.5,71.1,67.5,97,91,75,29.86,29.76,2,0,6,0.04
2013-9-2,77.1,72.8,68.9,75.4,71.3,67.4,97,95,92,29.84,29.69,2,0,6,0.85
2013-9-3,77.4,69.1,59.3,72.2,66.8,57.9,97,92,77,29.78,29.67,1,0,4,0.09
2013-9-4,77.0,64.9,54.1,63.6,58.6,53.0,98,82,52,29.89,29.78,3,0,10,0.01
2013-9-5,67.5,59.9,47.0,59.8,51.8,43.2,96,77,44,30.14,29.83,3,0,8,0.00
2013-9-6,66.3,52.8,39.5,52.3,44.6,38.0,97,77,41,30.24,30.07,2,0,6,0.00
2013-9-7,76.5,59.3,43.4,64.6,53.2,42.1,97,82,45,30.07,29.83,2,0,5,0.01
2013-9-8,68.3,60.8,45.9,62.4,52.9,43.0,94,77,45,30.08,29.73,5,1,16,0.01
2013-9-9,66.7,52.7,37.8,55.8,45.9,36.3,97,79,47,30.23,30.08,2,0,6,0.00
2013-9-10,73.2,62.7,49.8,70.9,60.9,47.9,96,94,91,30.13,30.00,2,0,5,0.10
2013-9-11,88.8,75.6,63.9,78.7,71.3,62.7,97,88,68,30.04,29.90,2,0,7,0.08
2013-9-12,80.7,70.3,65.4,76.3,68.8,64.2,97,95,85,29.92,29.65,5,0,7,2.01
2013-9-13,71.7,65.6,57.4,68.9,63.2,54.0,97,92,79,29.75,29.55,2,0,7,0.08
2013-9-14,64.8,58.2,49.4,57.0,53.6,48.0,95,85,70,30.04,29.75,2,0,7,0.01
2013-9-15,67.2,54.7,42.8,58.1,50.1,41.5,97,86,57,30.15,30.02,2,0,7,0.00
2013-9-16,64.3,55.1,45.1,58.6,50.6,39.3,96,85,66,30.25,29.99,3,0,9,0.02
2013-9-17,61.2,47.7,34.6,50.8,40.8,33.1,97,79,47,30.42,30.26,3,0,8,0.00
2013-9-18,69.4,50.2,36.0,56.4,44.3,34.7,97,83,44,30.32,30.12,2,0,4,0.00
2013-9-19,73.4,55.8,40.7,60.9,50.3,39.4,97,84,50,30.12,30.01,2,0,4,0.00
2013-9-20,75.0,58.7,43.8,63.9,53.7,42.4,97,85,54,30.08,29.98,2,0,5,0.00
2013-9-21,72.2,60.2,46.1,65.5,57.0,44.7,97,90,74,30.01,29.70,3,0,12,0.00
2013-9-22,68.0,62.6,51.5,66.0,57.6,44.9,96,84,62,29.82,29.58,3,0,12,0.67
2013-9-23,58.5,50.2,42.0,45.9,42.9,39.6,91,77,59,29.99,29.82,5,1,12,0.00
2013-9-24,62.7,50.0,38.1,48.3,42.5,36.5,96,77,50,29.98,29.81,5,0,12,0.00
2013-9-25,65.5,52.1,39.4,54.4,47.2,38.1,97,85,62,29.98,29.87,2,0,8,0.00
2013-9-26,64.4,55.6,49.0,54.8,50.3,47.3,95,84,59,30.13,29.98,2,0,6,0.00
2013-9-27,64.9,56.9,47.6,56.9,52.6,46.0,94,86,67,30.25,30.13,2,0,6,0.00
2013-9-28,71.0,54.4,42.4,58.3,49.7,41.1,97,85,58,30.33,30.25,5,0,9,0.00
2013-9-29,65.0,51.1,42.1,53.3,46.5,40.8,97,86,56,30.26,30.11,3,0,7,0.00
2013-9-30,66.5,51.2,39.0,56.5,47.0,37.5,97,87,55,30.13,29.96,2,0,5,0.00
2013-10-1,72.4,55.2,40.4,59.9,49.7,39.1,97,84,51,29.96,29.83,2,0,8,0.00
2013-10-2,77.1,59.9,44.9,63.6,55.0,43.6,97,85,58,29.93,29.81,3,0,12,0.00
2013-10-3,73.6,58.1,45.0,59.2,51.6,43.7,97,82,41,30.08,29.93,2,0,5,0.00
2013-10-4,59.7,55.0,47.6,58.0,53.6,46.2,97,95,91,30.09,30.03,0,0,2,0.10
2013-10-5,65.4,59.2,54.1,60.0,55.9,53.0,97,89,75,30.12,30.05,3,0,5,0.00
2013-10-6,57.9,53.8,50.7,56.1,52.2,49.2,97,95,91,30.24,30.10,2,0,7,0.28
2013-10-7,74.0,62.9,54.3,69.6,61.1,53.2,97,94,82,30.13,29.76,6,1,15,0.22
2013-10-8,62.6,52.6,40.0,56.6,45.5,38.4,97,79,44,30.38,29.88,6,1,12,0.01
2013-10-9,59.9,46.1,34.7,48.6,41.3,33.4,97,85,59,30.48,30.37,3,0,8,0.00
2013-10-10,61.2,48.2,36.1,52.2,44.5,34.8,97,88,64,30.37,30.18,1,0,4,0.00
2013-10-11,69.3,54.0,43.8,53.2,46.4,40.5,97,79,35,30.18,30.10,3,0,8,0.00
2013-10-12,55.3,50.6,41.9,53.7,49.1,40.6,97,95,93,30.40,30.15,3,0,10,0.01
2013-10-13,57.2,47.6,38.2,50.8,44.4,36.4,97,89,74,30.45,30.38,3,0,8,0.00
2013-10-14,62.6,47.3,34.0,50.5,42.0,32.7,97,84,51,30.41,30.23,2,0,6,0.00
2013-10-15,63.0,55.3,50.3,54.9,51.4,48.6,95,87,68,30.26,30.17,3,0,8,0.00
2013-10-16,60.6,53.9,46.9,53.1,50.6,45.5,96,89,67,30.18,29.91,2,0,5,0.00
2013-10-17,73.1,55.8,46.0,60.0,50.2,44.9,97,84,46,29.91,29.69,3,0,7,0.00
2013-10-18,66.5,57.7,45.1,58.8,50.3,40.5,97,78,50,29.88,29.58,6,1,14,0.04
2013-10-19,66.4,50.7,34.8,48.3,42.3,33.2,97,76,44,29.96,29.73,2,0,6,0.00
2013-10-20,60.5,50.3,37.8,48.5,40.9,35.1,95,73,44,30.00,29.67,6,1,12,0.00
2013-10-21,64.8,46.2,31.0,46.8,38.8,29.5,97,78,44,30.10,29.97,3,0,6,0.00
2013-10-22,61.5,48.9,39.4,52.7,44.8,37.8,97,86,69,29.97,29.69,2,0,10,0.00
2013-10-23,51.2,41.7,30.7,40.1,35.8,29.2,96,81,55,29.79,29.58,2,0,4,0.00
2013-10-24,50.8,42.3,31.3,38.9,32.7,29.2,95,71,46,29.86,29.63,7,1,12,0.00
2013-10-25,48.4,37.5,28.2,35.9,29.6,25.6,96,75,47,30.13,29.86,5,0,12,0.00
2013-10-26,53.0,39.4,24.3,36.1,29.0,22.6,96,70,38,30.14,29.86,6,1,12,0.00
2013-10-27,53.0,45.7,31.4,38.7,34.8,28.3,89,67,47,30.04,29.78,5,1,12,0.00
2013-10-28,55.7,39.5,26.9,37.7,30.4,24.7,96,72,45,30.34,30.04,5,1,12,0.00
2013-10-29,46.1,32.1,21.8,28.4,22.8,19.3,94,72,35,30.45,30.34,2,0,5,0.00
2013-10-30,48.1,34.9,26.2,38.5,30.4,22.6,93,84,65,30.36,30.19,2,0,4,0.01
2013-10-31,57.6,42.2,27.5,56.7,40.6,26.0,97,94,90,30.24,29.77,3,0,12,0.13
2013-11-1,67.8,61.6,50.8,63.0,57.3,48.6,96,86,70,29.76,29.40,7,2,20,0.04
2013-11-2,63.4,50.4,37.3,49.3,44.0,36.0,97,81,47,29.72,29.57,3,0,5,0.02
2013-11-3,45.6,38.9,27.0,43.7,28.1,16.2,95,67,38,30.43,29.72,3,1,12,0.00
2013-11-4,40.5,29.1,20.5,24.0,18.9,15.5,91,69,36,30.71,30.42,3,0,8,0.00
2013-11-5,48.0,32.7,20.6,32.1,26.0,18.1,92,78,50,30.72,30.50,3,0,8,0.00
2013-11-6,59.1,46.0,31.6,47.1,39.6,29.3,94,80,58,30.50,30.00,5,0,12,0.00
2013-11-7,61.9,51.5,38.7,57.0,48.0,35.7,95,88,78,30.01,29.66,5,0,12,0.08
2013-11-8,46.7,36.9,27.3,35.9,29.1,24.5,93,74,53,30.06,29.79,5,1,13,0.02
2013-11-9,42.7,36.8,28.4,32.7,26.8,23.7,88,68,47,30.19,30.01,5,0,13,0.01
2013-11-10,50.1,42.2,36.9,43.9,36.7,30.4,96,81,65,30.01,29.71,3,0,12,0.00
2013-11-11,49.8,42.8,37.6,34.3,29.9,26.5,76,61,41,30.08,29.83,6,1,12,0.00
2013-11-12,45.9,33.7,24.2,38.6,24.2,16.7,89,68,55,30.16,29.86,5,1,15,0.03
2013-11-13,34.3,26.3,20.1,18.9,16.4,12.2,85,67,43,30.28,30.13,5,1,10,0.00
2013-11-14,50.1,35.3,25.2,29.9,24.3,17.8,89,66,41,30.14,30.01,5,0,15,0.00
2013-11-15,57.9,36.0,23.2,31.3,24.5,20.9,93,69,24,30.17,30.08,3,0,8,0.00
2013-11-16,58.4,38.8,28.8,33.9,29.1,25.4,91,72,33,30.31,30.17,2,0,6,0.00
2013-11-17,47.9,38.8,27.0,44.4,36.7,25.0,96,92,85,30.32,29.84,1,0,2,0.02
2013-11-18,62.6,53.7,42.7,59.5,47.4,33.2,97,81,49,29.83,29.50,5,1,12,0.16
2013-11-19,46.4,37.6,30.2,33.7,23.0,16.6,63,56,45,30.27,29.63,8,2,20,0.00
2013-11-20,39.2,30.1,20.5,19.8,16.7,13.9,84,59,36,30.62,30.27,6,1,12,0.00
2013-11-21,45.2,29.3,16.2,26.3,19.7,14.0,93,71,33,30.64,30.36,2,0,7,0.00
2013-11-22,42.5,38.0,30.8,41.2,36.0,25.3,96,92,79,30.36,29.79,1,0,3,0.22
2013-11-23,42.3,36.1,27.6,41.5,28.0,13.1,97,73,50,29.91,29.76,6,1,16,0.02
2013-11-24,27.5,22.4,18.5,20.1,7.3,0.4,89,53,37,30.17,29.77,10,3,27,0.00
2013-11-25,30.5,22.5,14.8,17.9,5.3,-3.9,76,49,26,30.36,30.17,6,1,18,0.00
2013-11-26,35.3,31.7,28.0,31.3,24.6,17.1,95,76,57,30.32,30.06,2,0,10,0.12
2013-11-27,59.9,46.9,32.6,58.8,45.5,31.3,97,95,83,30.05,29.21,6,1,22,1.64
2013-11-28,36.4,29.0,18.2,32.7,17.8,7.4,87,64,39,30.42,29.41,8,2,20,0.00
2013-11-29,29.6,21.0,13.1,16.6,11.7,5.7,92,70,37,30.75,30.42,5,0,10,0.00
2013-11-30,30.6,20.6,8.4,22.4,14.4,5.6,92,78,55,30.81,30.43,3,0,8,0.00
2013-12-1,35.5,32.5,28.2,34.2,29.9,22.3,96,90,78,30.43,30.02,2,0,5,0.20
2013-12-2,37.7,35.7,34.0,36.7,34.6,33.0,96,96,95,30.02,29.91,1,0,3,0.02
2013-12-3,46.6,35.7,26.6,37.6,32.9,25.4,96,90,66,29.94,29.84,3,0,8,0.00
2013-12-4,40.4,30.1,23.0,31.8,26.5,21.5,96,87,61,30.19,29.94,3,0,6,0.00
2013-12-5,38.3,34.5,25.9,37.0,33.2,24.4,96,95,93,30.21,29.90,2,0,4,0.02
2013-12-6,46.1,41.1,33.0,45.0,38.4,31.6,97,91,70,30.16,29.84,2,0,7,0.20
2013-12-7,36.8,31.9,20.8,33.8,28.3,19.1,94,87,68,30.44,30.07,5,0,10,0.08
2013-12-8,28.7,23.8,16.8,22.7,19.2,14.9,94,83,66,30.58,30.44,2,0,4,0.00
2013-12-9,34.8,30.3,24.2,33.5,28.0,18.5,96,91,71,30.50,29.87,3,0,8,0.29
2013-12-10,32.7,29.5,21.2,31.6,27.3,15.7,96,91,71,29.97,29.77,2,0,12,0.04
2013-12-11,30.3,22.9,17.0,19.4,17.1,14.6,93,79,56,30.17,29.97,5,0,10,0.00
2013-12-12,22.6,15.8,9.2,18.8,8.3,0.4,94,74,39,30.25,30.04,6,1,13,0.00
2013-12-13,27.2,16.3,6.5,20.2,10.2,-0.1,91,77,59,30.41,29.97,6,1,10,0.00
2013-12-14,15.9,11.4,6.6,13.0,3.1,-3.4,89,69,55,30.62,30.20,5,1,10,0.18
2013-12-15,27.6,20.5,14.9,25.6,18.2,12.3,94,91,88,30.20,29.44,8,1,16,0.78
2013-12-16,25.4,17.0,3.5,16.9,10.3,0.2,93,76,48,30.20,29.71,6,1,13,0.00
2013-12-17,17.9,7.0,-8.1,14.6,3.1,-11.5,90,84,62,30.28,29.98,3,0,8,0.28
2013-12-18,31.8,21.7,13.3,22.1,17.5,10.5,94,84,64,30.05,29.88,7,1,12,0.00
2013-12-19,38.4,28.3,22.4,26.6,23.2,20.3,92,82,60,30.10,29.93,5,0,8,0.00
2013-12-20,41.1,31.8,25.0,34.4,29.1,23.0,94,90,76,30.11,29.89,1,0,7,0.08
2013-12-21,47.9,36.8,31.3,42.0,34.3,29.7,96,91,76,29.93,29.83,0,0,3,0.01
2013-12-22,39.8,33.9,31.7,38.8,32.7,30.7,96,95,94,30.03,29.77,3,0,10,0.09
2013-12-23,33.2,32.0,30.6,32.2,31.0,29.6,96,96,96,30.10,29.96,3,0,6,0.36
2013-12-24,34.0,29.4,22.7,33.2,23.5,14.2,97,79,59,30.19,30.05,5,0,12,0.00
2013-12-25,22.9,15.8,10.3,14.5,6.0,0.4,85,65,49,30.54,30.19,5,1,12,0.00
2013-12-26,26.3,18.2,9.3,23.8,15.1,7.0,92,88,80,30.50,30.08,1,0,4,0.00
2013-12-27,32.3,18.3,4.0,25.1,14.1,1.5,94,84,64,30.25,30.18,3,0,10,0.09
2013-12-28,43.8,27.5,12.8,31.3,22.9,10.9,95,84,59,30.20,29.96,3,0,9,0.00
2013-12-29,36.6,30.8,23.6,33.8,28.9,22.1,95,92,82,30.02,29.46,6,0,12,0.91
2013-12-30,38.9,29.9,14.1,36.3,23.2,5.4,97,77,48,30.17,29.51,7,1,18,0.00
2013-12-31,21.2,14.6,7.4,13.0,5.0,-1.6,90,66,49,30.17,30.01,2,0,9,0.00
2014-1-1,24.3,17.0,10.4,10.9,8.7,6.5,86,71,50,30.38,30.16,5,0,12,0.00
2014-1-2,16.6,8.7,0.5,13.1,5.1,-3.2,89,85,81,30.36,29.91,9,2,15,0.26